TRITON-1

Last updated on Sat Feb 08 2025 00:03:39 GMT+0000 (Coordinated Universal Time)

1 39427U 13066M 25038.78706924 .00006531 00000+0 84852-3 0 9996 2 39427 97.8410 315.7291 0098041 42.1645 318.7054 14.77675843601151
UTC large
Height (km)
Speed (km/s)
/
Latitude / Longitude
Inclination (degrees)
Orbital Period (minutes)
Azimuth
Elevation
Range (km)
Doppler Factor

Next 0 passes for location: London (51.5072 / 0.1276)

Sorry there are no passes over London.